Belle Chasse, LA

10:35 PM CST on February 26, 2017 (GMT -0600)
New Orleans Naval Air Station

Weather History for KNBG - August, 2014

Change the Weather History Date:

Tuesday, August 26, 2014

  Actual Average Record
Temperature  
Mean Temperature 83 °F -  
Max Temperature 89 °F 87 °F 99 °F (2011)
Min Temperature 77 °F 72 °F 32 °F (2007)
Cooling Degree Days 18    
Growing Degree Days 33 (Base 50)    
Moisture  
Dew Point 72 °F    
Average Humidity 73    
Maximum Humidity 88    
Minimum Humidity 53    
Precipitation  
Precipitation 0.00 in - - ()
Sea Level Pressure  
Sea Level Pressure 29.95 in    
Wind  
Wind Speed 7 mph (ENE)    
Max Wind Speed 15 mph    
Max Gust Speed 22 mph    
Visibility 9 miles    
Events Thunderstorm    
Averages and records for this station are not official NWS values.
T = Trace of Precipitation, MM = Missing Value Source: NWS Daily Summary

Daily Weather History Graph

Daily Weather History Graph

Search for Another Location

Airport or City:

Trip Planner

Search our weather history database for the weather conditions in past years. The results will help you decide how hot, cold, wet, or windy it might be!

Date:

Astronomy

Aug. 26, 2014 Rise Set
Actual Time 6:34 AM CDT 7:29 PM CDT
Civil Twilight 6:09 AM CDT 7:53 PM CDT
Nautical Twilight 5:40 AM CDT 8:22 PM CDT
Astronomical Twilight 5:10 AM CDT 8:52 PM CDT
Moon 7:26 AM CDT (8/26) 8:00 PM CDT (8/26)
Length of Visible Light 13h 44m
Length of Day
12h 55m
New Moon, 1% of the Moon is Illuminated
Aug 26
New Moon
Sep 2
First Quarter
Sep 8
Full
Sep 15
Last Quarter
Sep 24
New

Hourly Weather History & Observations

Time (CDT) Temp. Heat Index Dew Point Humidity Pressure Visibility Wind Dir Wind Speed Gust Speed Precip Events Conditions
12:55 AM 78.1 °F - 72.0 °F 81% 29.94 in - NNE 6.9 mph - N/A   Mostly Cloudy
1:55 AM 78.1 °F - 72.0 °F 81% 29.92 in - NNE 4.6 mph - N/A   Mostly Cloudy
2:05 AM 78.1 °F - 72.0 °F 81% 29.92 in - NNE 4.6 mph - N/A Thunderstorm Thunderstorm
2:32 AM 78.1 °F - 73.0 °F 84% 29.91 in - NE 4.6 mph - N/A   Mostly Cloudy
2:55 AM 78.1 °F - 73.0 °F 84% 29.91 in - NE 4.6 mph - N/A   Mostly Cloudy
3:36 AM 80.1 °F 84.2 °F 73.0 °F 79% 29.91 in - SE 3.5 mph - N/A   Mostly Cloudy
3:46 AM 79.0 °F - 73.9 °F 84% 29.91 in - Calm Calm - N/A   Scattered Clouds
3:55 AM 78.1 °F - 73.9 °F 87% 29.91 in - Calm Calm - N/A   Partly Cloudy
4:55 AM 77.0 °F - 73.0 °F 88% 29.91 in - North 4.6 mph - N/A   Partly Cloudy
5:55 AM 78.1 °F - 72.0 °F 81% 29.92 in 8.0 mi NNE 4.6 mph - N/A   Mostly Cloudy
6:55 AM 78.1 °F - 73.0 °F 84% 29.94 in 7.0 mi NE 8.1 mph - N/A   Scattered Clouds
7:55 AM 80.1 °F 84.2 °F 73.0 °F 79% 29.95 in 7.0 mi NE 9.2 mph - N/A   Mostly Cloudy
8:55 AM 81.0 °F 86.2 °F 73.9 °F 79% 29.97 in 7.0 mi NE 6.9 mph - N/A   Mostly Cloudy
9:55 AM 84.9 °F 93.3 °F 75.0 °F 72% 29.98 in 8.0 mi ENE 15.0 mph - N/A   Mostly Cloudy
10:55 AM 88.0 °F 96.5 °F 73.9 °F 63% 29.98 in 8.0 mi ENE 15.0 mph 21.9 mph N/A   Mostly Cloudy
11:55 AM 88.0 °F 93.8 °F 71.1 °F 57% 29.99 in 8.0 mi East 12.7 mph 20.7 mph N/A   Mostly Cloudy
12:55 PM 89.1 °F 94.1 °F 70.0 °F 53% 29.98 in 8.0 mi ENE 13.8 mph - N/A   Mostly Cloudy
1:55 PM 88.0 °F 93.8 °F 71.1 °F 57% 29.98 in 10.0 mi East 13.8 mph - N/A   Mostly Cloudy
2:55 PM 87.1 °F 92.0 °F 70.0 °F 57% 29.97 in 10.0 mi ENE 11.5 mph - N/A   Mostly Cloudy
3:34 PM 86.0 °F 90.7 °F 70.0 °F 59% 29.96 in 10.0 mi East 11.5 mph - N/A   Mostly Cloudy
3:55 PM 86.0 °F 90.1 °F 69.1 °F 57% 29.96 in 10.0 mi East 10.4 mph - N/A   Mostly Cloudy
4:55 PM 86.0 °F 90.7 °F 70.0 °F 59% 29.96 in 10.0 mi East 8.1 mph - N/A   Mostly Cloudy
5:55 PM 84.9 °F 90.1 °F 71.1 °F 63% 29.95 in 10.0 mi East 8.1 mph - N/A   Mostly Cloudy
6:55 PM 82.9 °F 87.0 °F 70.0 °F 65% 29.95 in 10.0 mi East 6.9 mph - N/A   Mostly Cloudy
7:55 PM 82.0 °F 86.3 °F 71.1 °F 69% 29.95 in 10.0 mi East 5.8 mph - N/A   Mostly Cloudy
8:55 PM 81.0 °F 84.9 °F 71.1 °F 72% 29.96 in 10.0 mi East 5.8 mph - N/A   Mostly Cloudy
9:55 PM 78.1 °F - 72.0 °F 81% 29.97 in 10.0 mi ENE 3.5 mph - N/A   Mostly Cloudy
10:55 PM 78.1 °F - 73.0 °F 84% 29.97 in 10.0 mi ENE 3.5 mph - N/A   Mostly Cloudy
11:55 PM 79.0 °F - 73.0 °F 82% 29.97 in - NE 3.5 mph - N/A   Clear